• In Hungary
  • List of Countries
  • For 7 days
  • Water Temperature
  • Satellite Maps
  • Weather Map
  • News
  • Weather Widgets
  • user-avatar
    Login

    Hourly Weather Poboische

    Today, 20 May, Sunday

    Time Temperature Precipitation Wind Pressure Humidity
    00:00 +14°C° 0 mm 2 mps 713 mmHg 78%
    01:00 +13°C° 0 mm 2 mps 713 mmHg 76%
    02:00 +13°C° 0 mm 2 mps 713 mmHg 75%
    03:00 +13°C° 0 mm 2 mps 713 mmHg 74%
    04:00 +13°C° 0 mm 4 mps 712 mmHg 73%
    05:00 +14°C° 0 mm 4 mps 712 mmHg 69%
    06:00 +15°C° 0 mm 4 mps 713 mmHg 64%
    07:00 +17°C° 0 mm 4 mps 713 mmHg 60%
    08:00 +19°C° 0 mm 5 mps 713 mmHg 53%
    09:00 +21°C° 0 mm 6 mps 713 mmHg 45%
    10:00 +23°C° 0 mm 7 mps 713 mmHg 38%
    11:00 +23°C° 0 mm 7 mps 713 mmHg 37%
    12:00 +24°C° 0 mm 7 mps 713 mmHg 37%
    13:00 +24°C° 0 mm 7 mps 713 mmHg 36%
    14:00 +24°C° 0 mm 6 mps 713 mmHg 39%
    15:00 +24°C° 0 mm 6 mps 713 mmHg 42%
    16:00 +25°C° 0 mm 5 mps 713 mmHg 45%
    17:00 +23°C° 0.2 mm 5 mps 713 mmHg 52%
    18:00 +21°C° 0.2 mm 4 mps 713 mmHg 59%
    19:00 +20°C° 0.2 mm 3 mps 713 mmHg 66%
    20:00 +19°C° 0.6 mm 3 mps 713 mmHg 72%
    21:00 +17°C° 0.6 mm 2 mps 713 mmHg 79%
    22:00 +15°C° 0.6 mm 1 mps 713 mmHg 85%
    23:00 +15°C° 0.3 mm 1 mps 713 mmHg 86%

    Tomorrow, 21 May, Monday

    Time Temperature Precipitation Wind Pressure Humidity
    00:00 +15°C° 0.3 mm 1 mps 713 mmHg 88%
    01:00 +14°C° 0.3 mm 1 mps 714 mmHg 89%
    02:00 +14°C° 0 mm 1 mps 714 mmHg 90%
    03:00 +14°C° 0 mm 1 mps 714 mmHg 90%
    04:00 +14°C° 0 mm 1 mps 714 mmHg 91%
    05:00 +15°C° 0.1 mm 1 mps 715 mmHg 88%
    06:00 +16°C° 0.1 mm 1 mps 715 mmHg 86%
    07:00 +18°C° 0.1 mm 1 mps 715 mmHg 84%
    08:00 +18°C° 0.7 mm 2 mps 715 mmHg 80%
    09:00 +19°C° 0.7 mm 2 mps 716 mmHg 76%
    10:00 +20°C° 0.7 mm 3 mps 716 mmHg 72%
    11:00 +20°C° 0.5 mm 3 mps 716 mmHg 71%
    12:00 +20°C° 0.5 mm 3 mps 716 mmHg 70%
    13:00 +20°C° 0.5 mm 3 mps 716 mmHg 69%
    14:00 +20°C° 0.8 mm 3 mps 716 mmHg 73%
    15:00 +19°C° 0.8 mm 2 mps 716 mmHg 77%
    16:00 +18°C° 0.8 mm 2 mps 716 mmHg 81%
    17:00 +17°C° 0.4 mm 2 mps 716 mmHg 84%
    18:00 +17°C° 0.4 mm 2 mps 716 mmHg 86%
    19:00 +16°C° 0.4 mm 2 mps 716 mmHg 89%
    20:00 +15°C° 0 mm 2 mps 716 mmHg 91%
    21:00 +14°C° 0 mm 2 mps 717 mmHg 93%
    22:00 +12°C° 0 mm 2 mps 717 mmHg 95%
    23:00 +12°C° 0.1 mm 2 mps 717 mmHg 94%

    Day after tomorrow, 22 May, Tuesday

    Time Temperature Precipitation Wind Pressure Humidity
    00:00 +12°C° 0.1 mm 2 mps 717 mmHg 94%
    01:00 +10°C° 0.1 mm 2 mps 717 mmHg 94%
    02:00 +10°C° 0.2 mm 2 mps 717 mmHg 95%
    03:00 +9°C° 0.2 mm 2 mps 718 mmHg 95%
    04:00 +9°C° 0.2 mm 2 mps 718 mmHg 96%
    05:00 +9°C° 0 mm 2 mps 718 mmHg 92%
    06:00 +10°C° 0 mm 3 mps 718 mmHg 88%
    07:00 +11°C° 0 mm 3 mps 719 mmHg 85%
    08:00 +12°C° 0 mm 4 mps 719 mmHg 76%
    09:00 +14°C° 0 mm 4 mps 720 mmHg 66%
    10:00 +15°C° 0 mm 4 mps 720 mmHg 57%
    11:00 +17°C° 0 mm 4 mps 720 mmHg 52%
    12:00 +18°C° 0 mm 4 mps 720 mmHg 47%
    13:00 +19°C° 0 mm 4 mps 720 mmHg 42%
    14:00 +20°C° 0 mm 4 mps 720 mmHg 40%
    15:00 +20°C° 0 mm 4 mps 720 mmHg 38%
    16:00 +20°C° 0 mm 4 mps 720 mmHg 36%
    17:00 +19°C° 0 mm 3 mps 720 mmHg 42%
    18:00 +18°C° 0 mm 3 mps 720 mmHg 48%
    19:00 +16°C° 0 mm 2 mps 720 mmHg 55%
    20:00 +15°C° 0 mm 2 mps 720 mmHg 59%
    21:00 +13°C° 0 mm 2 mps 720 mmHg 64%
    22:00 +10°C° 0 mm 2 mps 721 mmHg 68%
    23:00 +10°C° 0 mm 2 mps 721 mmHg 71%

    23 May, Wednesday

    Time Temperature Precipitation Wind Pressure Humidity
    00:00 +9°C° 0 mm 2 mps 721 mmHg 74%
    01:00 +9°C° 0 mm 2 mps 721 mmHg 77%
    02:00 +9°C° 0 mm 2 mps 721 mmHg 78%
    03:00 +10°C° 0 mm 1 mps 721 mmHg 79%
    04:00 +9°C° 0 mm 1 mps 721 mmHg 80%
    05:00 +11°C° 0 mm 1 mps 722 mmHg 74%
    06:00 +13°C° 0 mm 1 mps 722 mmHg 68%
    07:00 +15°C° 0 mm 1 mps 722 mmHg 63%
    08:00 +17°C° 0 mm 2 mps 723 mmHg 56%
    09:00 +19°C° 0 mm 2 mps 723 mmHg 50%
    10:00 +21°C° 0 mm 2 mps 723 mmHg 44%
    11:00 +23°C° 0 mm 2 mps 723 mmHg 42%
    12:00 +24°C° 0 mm 2 mps 723 mmHg 40%
    13:00 +25°C° 0 mm 2 mps 723 mmHg 38%
    14:00 +25°C° 0 mm 2 mps 722 mmHg 38%
    15:00 +25°C° 0 mm 2 mps 722 mmHg 38%
    16:00 +25°C° 0 mm 2 mps 722 mmHg 39%
    17:00 +24°C° 0 mm 2 mps 722 mmHg 46%
    18:00 +23°C° 0 mm 1 mps 721 mmHg 52%
    19:00 +21°C° 0 mm 1 mps 721 mmHg 59%
    20:00 +19°C° 0 mm 1 mps 721 mmHg 64%
    21:00 +16°C° 0 mm 1 mps 720 mmHg 68%
    22:00 +15°C° 0 mm 1 mps 720 mmHg 72%
    23:00 +14°C° 0 mm 1 mps 720 mmHg 73%

    24 May, Thursday

    Time Temperature Precipitation Wind Pressure Humidity
    00:00 +14°C° 0 mm 1 mps 720 mmHg 74%
    01:00 +13°C° 0 mm 1 mps 719 mmHg 75%
    02:00 +13°C° 0 mm 1 mps 719 mmHg 75%
    03:00 +13°C° 0 mm 1 mps 719 mmHg 74%
    04:00 +12°C° 0 mm 1 mps 719 mmHg 74%
    05:00 +14°C° 0 mm 1 mps 719 mmHg 69%
    06:00 +16°C° 0 mm 1 mps 719 mmHg 63%
    07:00 +19°C° 0 mm 1 mps 720 mmHg 58%
    08:00 +21°C° 0 mm 1 mps 719 mmHg 53%
    09:00 +23°C° 0 mm 2 mps 719 mmHg 48%
    10:00 +24°C° 0 mm 3 mps 719 mmHg 43%
    11:00 +25°C° 0 mm 3 mps 719 mmHg 42%
    12:00 +25°C° 0 mm 3 mps 719 mmHg 41%
    13:00 +26°C° 0 mm 3 mps 718 mmHg 40%
    14:00 +25°C° 0 mm 3 mps 718 mmHg 41%
    15:00 +25°C° 0 mm 3 mps 718 mmHg 41%
    16:00 +25°C° 0 mm 3 mps 717 mmHg 42%
    17:00 +24°C° 0 mm 2 mps 717 mmHg 48%
    18:00 +23°C° 0 mm 2 mps 716 mmHg 53%
    19:00 +22°C° 0 mm 1 mps 716 mmHg 59%
    20:00 +20°C° 0 mm 1 mps 716 mmHg 62%
    21:00 +18°C° 0 mm 1 mps 716 mmHg 65%
    22:00 +16°C° 0 mm 1 mps 715 mmHg 68%
    23:00 +15°C° 0 mm 1 mps 715 mmHg 68%

    25 May, Friday

    Time Temperature Precipitation Wind Pressure Humidity
    00:00 +15°C° 0 mm 1 mps 715 mmHg 69%
    01:00 +14°C° 0 mm 1 mps 715 mmHg 69%
    02:00 +14°C° 0 mm 1 mps 715 mmHg 70%
    03:00 +14°C° 0 mm 1 mps 715 mmHg 71%
    04:00 +13°C° 0 mm 1 mps 715 mmHg 72%
    05:00 +15°C° 0 mm 1 mps 715 mmHg 67%
    06:00 +18°C° 0 mm 1 mps 715 mmHg 63%
    07:00 +20°C° 0 mm 1 mps 716 mmHg 59%
    08:00 +21°C° 0 mm 1 mps 716 mmHg 54%
    09:00 +23°C° 0 mm 2 mps 716 mmHg 49%
    10:00 +25°C° 0 mm 2 mps 716 mmHg 43%
    11:00 +26°C° 0 mm 2 mps 716 mmHg 42%
    12:00 +26°C° 0 mm 2 mps 716 mmHg 40%
    13:00 +27°C° 0 mm 3 mps 715 mmHg 38%
    14:00 +27°C° 0 mm 3 mps 715 mmHg 39%
    15:00 +26°C° 0 mm 3 mps 714 mmHg 40%
    16:00 +26°C° 0 mm 3 mps 714 mmHg 41%
    17:00 +25°C° 0 mm 3 mps 714 mmHg 47%
    18:00 +24°C° 0 mm 2 mps 713 mmHg 52%
    19:00 +23°C° 0 mm 2 mps 713 mmHg 58%
    20:00 +20°C° 0 mm 2 mps 712 mmHg 61%
    21:00 +18°C° 0 mm 2 mps 712 mmHg 63%
    22:00 +17°C° 0 mm 2 mps 712 mmHg 66%
    23:00 +16°C° 0.3 mm 2 mps 712 mmHg 71%
    Show more